Probability
10 11 11 11 10 9 10 11 12 12 12 13 14 14 13 12 12 10 8 7 7 6 6 6 4 2 1 1 0 0 1 1 1 0 0 0 0 0 0 0 2 5 6
10 12 14 13 12 12 12 12 13 13 12 12 13 14 13 12 11 11 9 8 7 6 6 6 4 2 1 0 0 1 3 3 2 1 1 1 1 1 1 1 2 4 5
16 18 19 18 16 15 15 14 13 13 12 12 13 14 13 12 12 11 10 9 8 7 6 6 5 3 1 1 1 3 5 5 4 3 3 2 3 2 2 2 2 2 2
21 22 22 20 18 16 16 14 13 14 14 14 14 13 13 13 12 11 9 9 7 5 5 5 4 4 3 2 2 4 5 5 5 5 4 3 4 3 2 2 1 1 1
18 19 20 18 15 15 15 14 14 15 15 15 14 13 13 13 11 10 9 7 4 2 2 2 2 2 2 2 2 3 3 3 4 4 4 4 4 4 4 3 2 2 2
16 15 15 14 12 12 13 13 13 14 14 14 14 14 14 12 9 7 6 4 2 0 0 0 0 1 1 1 1 1 1 2 3 3 4 5 5 5 5 5 5 4 4
15 14 13 11 11 11 12 12 11 11 11 11 11 11 11 9 6 5 3 2 0 0 0 0 0 1 1 0 0 0 0 1 1 2 4 4 4 5 6 6 6 5 5
13 12 10 10 11 10 9 8 7 7 7 6 5 6 7 6 4 4 2 1 1 0 0 0 0 0 0 0 0 0 0 0 0 1 2 2 2 3 4 5 4 4 5
10 9 8 8 8 7 6 3 2 3 3 2 2 4 5 4 3 2 2 2 2 1 1 1 0 0 0 0 0 0 0 0 1 1 1 1 1 1 1 2 2 2 3
7 6 6 5 5 4 3 1 0 1 1 2 3 4 4 4 3 2 1 1 2 2 2 2 1 1 0 0 0 0 0 0 1 2 1 1 1 1 0 0 1 2 3
5 5 4 4 3 3 2 1 0 0 1 2 3 3 3 3 3 2 1 0 1 1 1 2 2 1 0 0 0 0 0 0 1 2 3 4 4 3 2 2 2 3 4
4 4 3 3 3 3 1 0 0 0 0 1 1 2 2 2 2 2 1 0 0 0 0 1 1 1 0 0 0 0 0 0 0 1 3 5 5 5 4 5 5 5 6
4 4 4 3 3 3 1 0 0 0 0 0 0 1 1 1 1 1 0 0 0 0 0 0 0 0 0 0 0 0 0 0 0 1 3 4 4 4 4 5 6 6 6
3 4 4 3 2 2 1 0 0 0 0 0 0 0 0 0 0 0 0 0 0 0 0 0 0 0 0 0 0 0 0 0 0 1 3 3 3 3 4 5 6 6 6
3 3 2 1 1 1 1 0 0 0 0 0 0 0 0 0 0 0 0 0 0 0 0 0 0 0 0 0 0 0 0 0 0 2 3 3 3 3 4 5 6 6 6
3 2 1 0 0 0 0 0 0 0 0 0 0 0 0 0 0 0 0 0 0 0 0 0 0 0 0 0 0 0 0 0 0 1 2 2 2 3 3 4 5 4 4
4 3 1 1 0 0 0 0 0 0 0 0 0 0 0 0 0 0 0 0 0 0 0 0 0 0 0 0 0 0 0 0 0 0 1 1 1 1 2 3 2 1 1
5 4 3 2 1 1 1 1 0 0 0 0 0 0 0 0 0 0 0 0 0 0 0 0 0 0 0 0 0 0 0 0 0 0 0 0 0 0 1 1 1 0 0
3 3 3 3 2 2 2 2 1 0 0 0 0 0 0 0 0 0 0 0 0 0 0 0 0 0 0 0 0 0 0 0 0 0 0 0 0 0 0 0 0 0 0
1 1 2 2 2 2 2 3 3 1 0 0 0 0 0 0 0 0 0 0 0 0 0 0 0 0 0 0 0 0 0 0 0 0 0 0 0 0 0 0 0 0 0
0 0 1 1 1 1 1 2 3 2 0 0 0 0 0 0 0 0 0 0 0 0 0 0 0 0 0 0 0 0 0 0 0 0 0 0 0 0 0 0 0 0 0
0 0 0 0 0 0 0 1 1 1 0 0 0 0 0 0 0 0 0 0 0 0 0 0 0 0 0 0 0 0 0 0 0 0 0 0 0 0 0 0 0 0 0
0 0 0 0 0 0 0 0 0 0 0 0 0 0 0 0 0 0 0 0 0 0 0 0 0 0 0 0 0 0 0 0 0 0 0 0 0 0 0 0 0 0 0
0 0 0 0 0 0 0 0 0 0 0 0 0 0 0 0 0 0 0 0 0 0 0 0 0 0 0 0 0 0 0 0 0 0 0 0 0 0 0 0 0 0 0
0 0 0 0 0 0 0 0 0 0 0 0 0 0 0 0 0 0 0 0 0 0 0 0 0 0 0 0 0 0 0 0 0 0 0 0 0 0 0 0 0 0 0
0 0 0 0 0 0 0 0 0 0 0 0 0 0 0 0 0 0 0 0 0 0 0 0 0 0 0 0 0 0 0 0 0 0 0 0 0 0 0 0 0 0 0
Wind_Speed
4 3 3 2 1 1 1 0 0 0 0 0 0 1 1 1 1 1 1 1 1 1 1 1 1 1 1 1 1 1 1 1 1 2 2 1 1 1 1 1 1 1 1
3 3 2 2 1 1 0 0 0 1 1 1 1 1 1 1 0 1 0 0 0 0 1 1 1 1 1 1 1 1 0 0 2 2 2 1 2 2 1 1 1 1 1
3 3 2 2 2 1 1 0 1 1 1 1 1 1 0 0 0 0 1 1 1 1 1 0 1 0 1 1 0 0 0 0 0 1 2 2 2 1 1 1 2 1 2
4 4 3 3 2 1 1 1 1 1 1 1 1 1 1 0 0 0 0 1 0 1 1 1 1 1 1 1 0 1 1 0 0 0 1 2 2 2 0 1 2 2 2
5 4 3 2 2 2 2 1 2 1 1 1 1 0 1 0 0 0 0 0 0 1 1 1 1 1 0 0 1 1 1 0 1 1 1 2 2 1 1 1 2 2 2
5 4 3 2 2 2 2 2 2 2 2 2 2 1 2 1 3 2 1 0 0 0 1 2 2 1 2 2 2 1 1 1 2 1 2 2 3 3 2 1 1 1 3
4 3 3 3 3 2 2 2 2 2 2 2 2 2 1 2 4 3 2 1 0 1 1 1 2 2 1 1 2 3 2 2 2 3 3 4 4 3 2 2 2 2 3
4 3 3 3 3 2 2 2 1 1 1 1 1 1 1 3 4 4 3 2 1 1 1 1 0 1 2 1 1 2 3 3 3 2 4 5 5 4 4 3 3 2 3
3 3 3 3 3 2 1 1 1 1 1 1 1 1 2 3 5 5 3 2 1 2 2 1 1 1 3 3 1 2 3 4 4 4 4 4 5 5 3 1 1 0 2
3 3 2 3 2 2 1 0 0 0 1 1 2 2 2 2 5 6 4 1 2 2 3 3 3 3 4 3 1 1 3 4 4 4 4 5 4 4 3 2 3 2 2
2 2 2 2 2 2 1 1 1 1 2 2 2 2 2 2 4 5 4 2 1 1 2 3 3 6 5 4 2 2 5 4 3 3 3 3 3 2 2 2 2 3 3
4 3 2 1 1 2 2 1 2 2 2 2 2 2 2 3 3 4 4 3 2 0 2 3 3 6 6 6 4 4 5 3 1 1 2 2 2 3 3 3 3 3 4
4 2 1 1 1 1 2 2 1 2 1 1 1 1 2 2 3 5 5 4 3 1 2 5 6 7 6 4 5 6 4 2 1 1 2 3 3 3 2 2 2 2 2
3 2 1 1 1 2 2 2 2 1 1 1 1 1 2 2 2 3 3 3 4 3 3 5 7 6 5 5 5 4 2 1 1 2 2 3 2 2 1 1 1 2 2
3 2 1 1 1 1 1 1 1 1 2 2 1 1 0 2 3 3 1 2 2 2 2 3 3 4 4 4 4 3 3 2 2 2 2 2 2 2 2 1 1 1 1
3 2 1 1 1 1 1 1 2 1 0 1 2 2 2 2 3 3 3 3 4 3 2 2 2 3 3 3 3 3 3 3 2 2 1 1 1 1 2 1 1 0 0
3 2 1 1 1 1 1 1 1 3 3 3 2 2 1 2 2 3 3 3 3 3 2 2 2 3 3 3 3 3 3 3 2 2 2 2 1 1 1 1 1 1 1
3 3 2 1 1 1 1 1 1 1 1 2 3 3 3 2 2 3 3 3 3 3 1 2 2 3 2 3 3 3 3 3 3 2 2 2 1 1 1 2 1 1 0
3 2 2 1 1 1 2 1 1 1 1 1 1 3 3 2 2 3 2 2 1 2 2 2 2 2 2 2 3 3 3 3 3 3 2 2 2 1 1 2 1 1 1
2 3 3 2 1 1 1 1 1 1 1 1 1 1 1 2 1 2 2 1 1 2 2 2 2 2 2 2 2 2 2 3 3 3 3 2 2 1 1 2 1 1 1
2 2 2 2 1 2 1 1 2 2 1 1 2 2 2 1 1 1 1 1 1 2 2 1 1 2 2 1 2 2 2 2 2 2 2 2 2 2 1 1 1 1 1
2 1 1 2 2 1 1 1 1 1 2 2 2 1 2 1 1 1 1 1 2 2 1 1 1 1 1 1 1 1 1 2 2 3 3 2 2 2 2 1 1 1 1
2 2 2 2 2 2 1 1 1 1 1 1 1 1 1 1 1 1 1 1 1 1 1 0 1 1 1 1 1 1 1 2 2 2 2 2 2 2 2 2 2 1 1
2 2 3 2 2 1 1 2 2 1 1 1 1 1 1 2 2 2 1 1 1 1 1 1 1 1 2 1 1 1 1 2 2 2 2 2 3 2 2 2 2 1 1
2 2 2 2 2 2 2 1 1 1 1 1 1 1 1 1 1 1 1 1 1 1 2 1 1 2 2 1 1 2 3 3 3 3 2 2 2 2 2 2 2 1 1
2 2 2 2 2 2 2 2 1 1 1 1 1 1 1 1 1 1 1 1 1 1 1 1 1 1 2 2 2 2 2 3 4 3 2 1 2 2 2 2 2 2 1
Wind_Direction
172 171 165 169 163 135 130 184 175 82 60 57 90 111 91 68 53 66 42 39 47 16 8 37 15 40 43 25 35 45 54 131 191 284 279 285 291 299 279 235 225 215 239
164 158 155 145 120 93 16 267 125 80 40 49 71 101 86 54 59 100 91 342 160 199 311 21 346 33 41 8 47 44 14 176 168 260 298 305 281 274 260 252 251 233 239
143 144 141 135 129 142 210 307 75 86 50 48 81 103 110 203 149 181 198 229 225 233 236 199 247 104 326 309 353 11 295 346 175 207 275 285 286 298 316 313 311 298 274
128 127 128 134 141 149 124 65 56 73 59 46 97 152 170 226 194 233 222 218 255 275 249 217 216 195 224 247 267 253 257 328 305 255 279 293 292 294 326 303 312 302 292
118 116 123 137 124 109 89 59 37 37 32 10 33 329 290 308 297 165 249 11 268 291 301 290 259 207 139 199 249 232 204 238 272 271 279 297 292 291 265 246 266 290 288
121 128 132 117 99 91 74 52 42 29 16 21 25 19 359 352 12 32 81 41 358 292 288 298 301 320 337 331 321 274 202 208 233 241 261 258 266 259 253 239 248 286 290
121 122 121 112 96 83 70 56 43 27 23 17 16 22 354 349 13 24 45 97 19 294 281 299 314 338 349 339 327 335 320 288 232 212 231 251 252 250 234 250 244 244 249
114 113 114 111 103 94 80 64 33 18 20 15 358 350 357 3 24 29 40 48 14 322 276 248 283 308 327 340 335 341 324 306 278 253 234 250 255 250 225 224 232 256 277
117 117 118 119 115 108 90 60 9 31 20 3 350 17 36 4 18 29 48 40 10 335 319 334 312 291 316 334 352 321 316 311 313 308 288 275 275 271 243 188 249 295 295
137 137 135 129 129 136 140 102 7 63 24 19 29 30 41 22 22 33 43 54 14 335 332 331 328 322 319 326 284 273 290 291 306 319 321 316 302 295 280 208 199 215 242
129 118 118 125 140 145 118 80 70 53 42 35 35 11 23 21 13 25 37 54 9 323 323 320 320 332 325 317 291 256 264 276 284 287 298 309 313 307 294 259 215 202 214
114 111 116 125 140 108 101 77 73 70 55 34 27 5 358 1 12 4 14 19 15 336 302 307 315 324 321 315 301 290 295 294 290 302 310 304 298 291 285 280 264 242 226
111 118 121 97 73 92 103 91 69 66 70 45 39 4 340 348 349 352 350 346 349 345 307 313 318 318 316 316 312 311 314 313 305 300 284 275 269 272 290 306 312 307 298
112 110 99 85 54 53 76 86 91 92 84 61 39 342 326 337 341 341 339 344 351 353 340 327 328 331 335 327 328 329 322 307 269 264 272 280 291 311 303 295 307 333 347
115 114 93 78 88 63 66 99 134 177 176 168 205 220 237 307 296 306 331 327 324 320 335 347 356 355 355 349 340 332 330 337 322 305 297 304 319 326 309 308 312 10 9
128 134 144 138 116 108 111 48 30 62 347 184 193 189 229 251 297 326 332 335 339 359 46 13 349 340 333 331 330 327 329 323 309 310 313 306 307 312 318 324 338 20 319
145 154 155 152 147 142 138 133 359 349 1 3 349 337 321 326 345 340 339 352 7 45 51 358 333 324 321 326 325 326 326 320 319 327 329 327 329 326 332 332 332 356 343
149 154 157 171 171 168 177 181 170 174 332 328 332 343 351 347 344 347 3 37 21 24 5 322 315 317 321 327 327 327 331 339 344 335 331 333 336 337 334 326 323 330 330
156 168 166 166 168 182 187 183 185 202 224 286 337 343 346 348 353 353 17 39 351 334 330 319 309 313 320 323 325 330 334 337 336 333 333 330 326 331 328 326 330 346 9
176 177 168 168 172 175 176 173 187 203 212 225 258 273 335 31 12 344 344 331 320 314 315 310 310 319 328 332 332 338 340 334 336 334 332 333 333 338 326 325 335 343 327
184 192 173 165 179 183 182 190 193 188 200 223 244 239 191 178 222 261 288 290 283 284 288 295 302 315 318 322 326 330 331 324 323 327 326 327 334 334 325 325 328 332 352
171 180 176 177 177 172 178 202 200 192 197 220 253 256 209 186 218 238 249 270 272 269 267 270 293 296 284 295 308 318 326 328 329 329 328 325 324 326 323 335 346 338 344
169 174 173 174 176 172 162 194 199 199 206 219 220 224 219 232 232 230 245 265 275 284 299 317 313 307 302 303 307 305 292 293 293 295 307 315 313 315 324 317 312 323 317
163 172 179 183 184 183 197 214 212 202 194 189 202 215 221 225 233 239 239 255 266 276 275 265 265 279 289 303 322 325 316 305 298 286 278 284 293 295 300 303 301 292 290
165 172 178 180 179 185 197 208 214 221 214 206 210 220 223 223 236 248 259 268 276 283 293 305 298 295 303 318 325 320 319 320 316 311 295 281 281 283 292 300 300 301 296
168 169 173 172 174 182 188 197 211 222 229 233 223 213 208 218 231 247 262 273 283 284 287 303 306 312 323 325 322 327 327 325 321 318 305 294 293 290 297 290 290 293 298